Tacoma, WA

6:40 PM PDT on July 21, 2017 (GMT -0700)
McChord Air Force Base

Weather History for KTCM - October, 2013

Change the Weather History Date:

Sunday, October 20, 2013

  Actual Average Record
Temperature  
Mean Temperature 47 °F -  
Max Temperature 49 °F 56 °F 71 °F (1987)
Min Temperature 44 °F 38 °F 28 °F (1996)
Degree Days  
Heating Degree Days 18    
Moisture  
Dew Point 47 °F    
Average Humidity 100    
Maximum Humidity 100    
Minimum Humidity 93    
Precipitation  
Precipitation 0.01 in - - ()
Sea Level Pressure  
Sea Level Pressure 30.20 in    
Wind  
Wind Speed 3 mph (NE)    
Max Wind Speed 6 mph    
Max Gust Speed -    
Visibility 4 miles    
Events Fog    
Averages and records for this station are not official NWS values.
T = Trace of Precipitation, MM = Missing Value Source: NWS Daily Summary

Daily Weather History Graph

Daily Weather History Graph

Search for Another Location

Airport or City:

Trip Planner

Search our weather history database for the weather conditions in past years. The results will help you decide how hot, cold, wet, or windy it might be!

Date:

Astronomy

Oct. 20, 2013 Rise Set
Actual Time 7:35 AM PDT 6:12 PM PDT
Civil Twilight 7:04 AM PDT 6:43 PM PDT
Nautical Twilight 6:29 AM PDT 7:19 PM PDT
Astronomical Twilight 5:53 AM PDT 7:54 PM PDT
Moon 7:17 PM PDT (10/20) 9:26 AM PDT (10/20)
Length of Visible Light 11h 39m
Length of Day
10h 36m
Waning Gibbous, 97% of the Moon is Illuminated
Oct 20
Waning Gibbous
Oct 26
Last Quarter
Nov 3
New
Nov 9
First Quarter
Nov 17
Full

Hourly Weather History & Observations

Time (PDT) Temp. Windchill Dew Point Humidity Pressure Visibility Wind Dir Wind Speed Gust Speed Precip Events Conditions
12:18 AM 46.4 °F 45.2 °F 46.4 °F 100% 30.20 in 0.8 mi ENE 3.5 mph - N/A   Mist
12:43 AM 46.4 °F - 46.4 °F 100% 30.20 in 0.8 mi ENE 1.2 mph - N/A   Mist
12:48 AM 46.4 °F - 46.4 °F 100% 30.20 in 1.0 mi Variable 1.2 mph - N/A   Mist
12:58 AM 46.6 °F - 46.6 °F 100% 30.22 in 0.8 mi East 2.3 mph - N/A   Mist
1:03 AM 46.4 °F - 46.4 °F 100% 30.20 in 1.0 mi East 2.3 mph - N/A   Mist
1:08 AM 46.4 °F - 46.4 °F 100% 30.20 in 0.8 mi ENE 2.3 mph - N/A   Mist
1:18 AM 46.4 °F - 46.4 °F 100% 30.20 in 0.8 mi Calm Calm - N/A   Mist
1:28 AM 46.4 °F 44.3 °F 46.4 °F 100% 30.20 in 0.5 mi NE 4.6 mph - N/A Fog Fog
1:48 AM 46.4 °F - 46.4 °F 100% 30.20 in 0.5 mi ENE 1.2 mph - N/A Fog Fog
1:53 AM 46.4 °F - 46.4 °F 100% 30.20 in 0.5 mi Calm Calm - N/A Fog Fog
1:58 AM 46.6 °F - 46.6 °F 100% 30.22 in 0.5 mi NNE 3.5 mph - N/A Fog Fog
2:08 AM 46.4 °F - 46.4 °F 100% 30.20 in 0.5 mi ENE 2.3 mph - N/A Fog Fog
2:23 AM 46.4 °F - 46.4 °F 100% 30.20 in 0.8 mi ENE 2.3 mph - N/A   Mist
2:58 AM 46.8 °F - 46.8 °F 100% 30.22 in 0.8 mi NE 2.3 mph - N/A   Mist
3:53 AM 46.4 °F 45.2 °F 46.4 °F 100% 30.19 in 0.8 mi NE 3.5 mph - N/A   Mist
3:58 AM 46.4 °F 43.5 °F 46.4 °F 100% 30.21 in 0.8 mi NE 5.8 mph - N/A   Mist
4:03 AM 46.4 °F - 46.4 °F 100% 30.19 in 1.0 mi ENE 2.3 mph - N/A   Mist
4:18 AM 46.4 °F - 46.4 °F 100% 30.19 in 1.2 mi Variable 2.3 mph - N/A   Overcast
4:33 AM 46.4 °F - 46.4 °F 100% 30.19 in 1.2 mi ENE 2.3 mph - N/A   Overcast
4:58 AM 46.4 °F 45.2 °F 46.4 °F 100% 30.21 in 1.2 mi NNE 3.5 mph - N/A   Overcast
5:08 AM 46.4 °F 44.3 °F 46.4 °F 100% 30.18 in 1.5 mi NE 4.6 mph - N/A   Overcast
5:13 AM 46.4 °F 45.2 °F 46.4 °F 100% 30.19 in 1.8 mi ENE 3.5 mph - N/A   Overcast
5:18 AM 46.4 °F 45.2 °F 46.4 °F 100% 30.19 in 1.5 mi NE 3.5 mph - N/A   Overcast
5:33 AM 46.4 °F - 46.4 °F 100% 30.19 in 1.5 mi Variable 1.2 mph - N/A   Overcast
5:38 AM 46.4 °F 43.5 °F 46.4 °F 100% 30.19 in 2.5 mi NE 5.8 mph - N/A   Overcast
5:48 AM 46.4 °F - 46.4 °F 100% 30.19 in 2.0 mi Variable 2.3 mph - N/A   Overcast
5:58 AM 46.4 °F 45.2 °F 46.4 °F 100% 30.21 in 2.5 mi NNE 3.5 mph - N/A   Overcast
6:03 AM 46.4 °F - 46.4 °F 100% 30.19 in 3.0 mi NNE 2.3 mph - N/A   Overcast
6:08 AM 46.4 °F 45.2 °F 46.4 °F 100% 30.19 in 3.0 mi NNE 3.5 mph - N/A   Overcast
6:13 AM 46.4 °F 45.2 °F 46.4 °F 100% 30.19 in 2.5 mi NE 3.5 mph - N/A   Overcast
6:18 AM 46.4 °F - 46.4 °F 100% 30.19 in 2.0 mi NE 1.2 mph - N/A   Overcast
6:23 AM 46.4 °F - 46.4 °F 100% 30.19 in 1.8 mi Calm Calm - N/A   Overcast
6:28 AM 46.4 °F - 46.4 °F 100% 30.19 in 1.5 mi NE 2.3 mph - N/A   Overcast
6:33 AM 46.4 °F - 46.4 °F 100% 30.20 in 1.8 mi Variable 2.3 mph - N/A   Overcast
6:38 AM 46.4 °F - 46.4 °F 100% 30.20 in 1.5 mi Calm Calm - N/A   Overcast
6:58 AM 45.9 °F 42.9 °F 45.9 °F 100% 30.22 in 1.2 mi North 5.8 mph - N/A   Overcast
7:08 AM 46.4 °F 43.5 °F 46.4 °F 100% 30.20 in 2.0 mi North 5.8 mph - N/A   Overcast
7:23 AM 46.4 °F 44.3 °F 46.4 °F 100% 30.19 in 2.5 mi NNE 4.6 mph - N/A   Overcast
7:33 AM 46.4 °F 44.3 °F 46.4 °F 100% 30.20 in 2.5 mi NNE 4.6 mph - N/A   Overcast
7:38 AM 46.4 °F 44.3 °F 46.4 °F 100% 30.20 in 2.0 mi North 4.6 mph - N/A   Overcast
7:53 AM 46.4 °F 44.3 °F 46.4 °F 100% 30.20 in 2.5 mi North 4.6 mph - N/A   Overcast
7:58 AM 45.7 °F 43.4 °F 45.7 °F 100% 30.22 in 2.5 mi NNE 4.6 mph - N/A   Overcast
8:03 AM 46.4 °F 45.2 °F 46.4 °F 100% 30.20 in 2.0 mi NNE 3.5 mph - N/A   Overcast
8:13 AM 46.4 °F 45.2 °F 46.4 °F 100% 30.20 in 1.8 mi North 3.5 mph - N/A   Overcast
8:18 AM 46.4 °F 45.2 °F 46.4 °F 100% 30.20 in 1.2 mi NNE 3.5 mph - N/A   Overcast
8:33 AM 46.4 °F 45.2 °F 46.4 °F 100% 30.20 in 2.5 mi NE 3.5 mph - N/A   Overcast
8:38 AM 46.4 °F - 46.4 °F 100% 30.21 in 3.0 mi NNE 1.2 mph - N/A   Overcast
8:58 AM 45.5 °F 44.2 °F 45.5 °F 100% 30.23 in 2.5 mi NE 3.5 mph - N/A   Overcast
9:03 AM 44.6 °F 43.1 °F 44.6 °F 100% 30.21 in 2.0 mi NNE 3.5 mph - N/A   Overcast
9:08 AM 46.4 °F 44.3 °F 46.4 °F 100% 30.21 in 2.5 mi NNE 4.6 mph - N/A   Overcast
9:23 AM 46.4 °F 43.5 °F 46.4 °F 100% 30.21 in 3.0 mi NNE 5.8 mph - N/A   Overcast
9:58 AM 45.5 °F - 45.5 °F 100% 30.23 in 5.0 mi NE 2.3 mph - N/A   Overcast
10:58 AM 45.9 °F - 45.9 °F 100% 30.22 in 6.0 mi Variable 2.3 mph - N/A   Overcast
11:58 AM 46.4 °F 44.3 °F 46.4 °F 100% 30.22 in 6.0 mi NNE 4.6 mph - N/A   Overcast
12:38 PM 48.2 °F - 48.2 °F 100% 30.20 in 9.0 mi Variable 2.3 mph - N/A   Overcast
12:58 PM 48.2 °F - 48.2 °F 100% 30.22 in 10.0 mi Variable 2.3 mph - N/A   Overcast
1:08 PM 48.2 °F - 48.2 °F 100% 30.20 in 9.0 mi Variable 2.3 mph - N/A   Overcast
1:18 PM 48.2 °F - 48.2 °F 100% 30.19 in 10.0 mi Variable 3.5 mph - N/A   Overcast
1:43 PM 48.2 °F - 48.2 °F 100% 30.19 in 10.0 mi NE 4.6 mph - N/A   Overcast
1:58 PM 48.6 °F - 48.4 °F 99% 30.21 in 10.0 mi ENE 3.5 mph - 0.01 in   Overcast
2:58 PM 49.3 °F - 48.9 °F 99% 30.20 in 10.0 mi Calm Calm - N/A   Overcast
3:23 PM 50.0 °F - 48.2 °F 94% 30.17 in 10.0 mi ENE 3.5 mph - N/A   Overcast
3:58 PM 49.3 °F - 48.9 °F 99% 30.19 in 10.0 mi ENE 1.2 mph - N/A   Overcast
4:58 PM 49.1 °F - 48.9 °F 99% 30.18 in 9.0 mi North 5.8 mph - N/A   Overcast
5:58 PM 48.6 °F - 48.4 °F 99% 30.18 in 10.0 mi NE 3.5 mph - N/A   Overcast
6:53 PM 48.2 °F - 48.2 °F 100% 30.16 in 10.0 mi East 2.3 mph - N/A   Overcast
6:58 PM 48.2 °F - 48.0 °F 99% 30.18 in 10.0 mi East 2.3 mph - N/A   Overcast
7:51 PM 48.2 °F - 48.2 °F 100% 30.16 in 10.0 mi NE 3.5 mph - N/A   Overcast
7:58 PM 48.2 °F - 48.0 °F 99% 30.18 in 10.0 mi Variable 1.2 mph - N/A   Overcast
8:58 PM 48.2 °F - 48.2 °F 100% 30.18 in 8.0 mi Calm Calm - N/A   Overcast
9:58 PM 47.5 °F - 47.3 °F 99% 30.18 in 7.0 mi East 3.5 mph - N/A   Overcast
10:18 PM 48.2 °F - 46.4 °F 93% 30.16 in 7.0 mi East 2.3 mph - N/A   Overcast
10:58 PM 47.1 °F - 46.9 °F 99% 30.19 in 6.0 mi ENE 3.5 mph - N/A   Overcast
11:58 PM 46.4 °F - 46.4 °F 100% 30.18 in 2.5 mi NE 2.3 mph - N/A   Overcast